Weather in Blagoveshchenka

Russia / Saratov Oblast     51°19′27″N   44°03′18″E
temp.,
°C
wind,
m/s
gust,
m/s
humid.,
%
clouds,
%
prec.,
mm/h
press.,
hPa
HPBL,
m
22 january, sat
sat2201:00−2s51097100 1.3 1011463
04:00−2ssw3698100 2.9 1011301
07:00−3ssw2897100 0.9 1012451
10:00−3ssw3797100 1.4 1013381
13:00−3sw3696100 0.9 1014507
16:00−3ssw2497100 2.1 1015328
19:00−6s239830 0.8 101756
22:00−12s22100100 0.8 101924
23 january, sun
sun2301:00−12s22100100 0.0 102027
04:00−10ese2299100 0.1 102128
07:00−9ese2297100 0.0 102238
10:00−6ene2595100 0.0 1023128
13:00−3ene4696100 0.3 1024252
16:00−3ene5997100 1.6 1024433
19:00−3ene61196100 2.2 1025439
22:00−4e61292100 2.8 1027368
24 january, mon
mon2401:00−6e61291100 0.0 1028360
04:00−7ene51290100 0.0 1029289
07:00−9ene71487100 0.0 1030275
10:00−9e61586100 0.0 1032315
13:00−8ene71487100 0.0 1032377
16:00−8e61388100 0.0 1032355
19:00−10ene61391100 0.0 1032286
22:00−10e61390100 0.0 1033280
25 january, tue
tue2501:00−11e61390100 0.0 1032241
04:00−11ese51289100 0.0 1032219
07:00−11ese51190100 0.0 1031211
10:00−12ese4109395 0.0 1031187
13:00−9se499381 0.0 1031240
16:00−8ese479527 0.0 1029189
19:00−11se379695 0.0 1029103
22:00−10se3896100 0.0 1028139
26 january, wed
wed2601:00−9se4896100 0.0 1027169
04:00−9se3797100 0.1 1026146
07:00−7se4996100 0.4 1024259
10:00−7se4995100 0.8 1023254
13:00−5sse489694 0.1 1023305
16:00−5sse369679 0.3 1022199
19:00−7sse3598100 0.1 102369
22:00−4sse2497100 0.1 1022161